Погода Ново-Иерусалим

Погода Ново-Иерусалим : погода сейчас, прогноз погоды и архив. Всё, что Вы хотите узнать о погоде Ново-Иерусалим!

Поиск расширенной информации на нашем сайте:

Другие новости

Новости СМИ2

Главная страница сайта

Новости сайта

03.07.2017

Напоминаем, что на нашем специализированном сайте Метеоцентр.Азия вы можете получить высокодетализированные автоматические прогнозы погоды по пунктам России, СНГ и мира в авиационном формате (включающие направление и скорость ветра, видимость, явления погоды, количество и форму облачности, нижнюю и верхнюю границу облачности).


Погода Ново-Иерусалим - сегодня

Время (UTC), дата Ветер
(°,м/с) 
Видим.   Явления Облачность Т
(°С)
Тd
(°С)
f(%) Тe
(°С)
Pmin
(гПа)
dP
(гПа)
Po
(мм)
O2
(г/м3)
Тmin Tmax R s Состояние
почвы
21 17.10.18 тихо ()   10 км    ясно 
+2.8 +2.3 97 +3  1025.8  754  301           
00 18.10.18 тихо ()   4000 м  дымка  ясно 
+1 +0.6 97 +1  1025.4  -0.6  754  303           
09 18.10.18 220 (ЮЗ) 10 км    ясно 
+16.3 +7.8 57 +17  1022  -0.9  752  285           
12 18.10.18 230 (ЮЗ) 10 км    ясно 
+18.8 +7.3 47 +19  1020.2  -1.6  751  282           
15 18.10.18 250 (З) 10 км    3/0 верхняя 
[Ci fib]
+14.3 +5.7 56 +16  1019.5  -0.9  750  286           
21 18.10.18 тихо ()   10 км    4/0 верхняя 
[Ci fib]
+5.1 +4.1 93 +5  1018.8  -0.6  749  296           
00 19.10.18 тихо ()   10 км    ясно 
+3.1 +2.6 97 +3  1018.2  -0.7  749  298           
03 19.10.18 тихо ()   10 км    ясно 
+5 +4.4 96 +5  1016.6  -1.5  748  295  +2.9         
06 19.10.18 тихо ()   4000 м  дымка  8/0 верхняя 
[Ci fib]
+7.4 +6.4 93 +7  1016.1  -0.3  748  292  +2.9        влажная 
09 19.10.18 230 (ЮЗ) 10 км    8/0 верхняя 
[Ci fib]
+14.5 +9.5 72 +16  1015.2  -0.4  747  284           
12 19.10.18 270 (З) 10 км    6/0 верхняя 
[Ci fib]
+17.2 +9.1 59 +18  1014.5  -0.5  747  282           
15 19.10.18 330 (СЗ) 10 км    10/10 600 м 
[Sc]
+13.2 +9 76 +13  1015.5  0.7  747  286           
21 19.10.18 280 (З) 10 км    ясно 
+5.1 +4.4 95 +6  1018.4  0.8  749  296           
00 20.10.18 290 (З) 10 км    ясно 
+2.6 +2.2 97 +3  1018.9  0.3  749  299           
03 20.10.18 280 (З) 10 км    ясно 
-0.3 -0.6 98 1020  0.9  750  303  -0.3         
09 20.10.18 320 (СЗ) 10 км    9/8 600 м кучево-дожд., верхняя 
[Cb calv|Ci fib]
+7.4 +1.7 67 +7  1021.4  1.1  751  295           
12 20.10.18 330 (СЗ) 10 км    10/10 600 м 
[Sc]
+7.8 +1.7 65 +8  1021.6  0.2  752  294           
15 20.10.18 320 (СЗ) 10 км    10/10 600 м 
[Sc]
+7.2 +1.4 67 +8  1021.7  752  295           
21 20.10.18 тихо ()   10 км    10/10 600 м 
[Sc]
+2.9 +1.6 91 +3  1023.2  0.6  752  300           
00 21.10.18 тихо ()   10 км    10/10 600 м 
[Sc]
+3.5 +2.1 91 +4  1023.5  0.4  753  299           
09 21.10.18 тихо ()   10 км    10/10 600 м 
[Sc]
+6.3 +3.3 81 +6  1026.2  1.1  755  297           
12 21.10.18 160 (Ю) 10 км    10/8 600 м средняя 
[Sc|Ac trans]
+7.7 +1.3 64 +9  1025.8  -0.2  755  296           
15 21.10.18 200 (Ю) 10 км    10/10 600 м 
[Sc]
+6.5 +2.1 73 +7  1026  0.1  755  297           
21 21.10.18 170 (Ю) 10 км    10/10 600 м 
[Sc]
+4.8 +2.3 84 +6  1026.6  -0.3  755  299           
00 22.10.18 220 (ЮЗ) 10 км    10/10 600 м 
[Sc]
+4.6 +2.3 85 +5  1026  -0.6  755  299           
Время (UTC), дата Ветер
(°,м/с) 
Видим.   Явления Облачность Т
(°С)
Тd
(°С)
f(%) Тe
(°С)
Pmin
(гПа)
dP
(гПа)
Po
(мм)
O2
(г/м3)
Тmin Tmax R s Состояние
почвы

Для получения пояснительной информации подведите курсор к названию столбца.

ПОГОДА Ново-Иерусалим - архив

Всё, что Вы хотите узнать о погоде Ново-Иерусалим - удобно и подробно!

Выберите нужную дату (начиная с 1 января 2015* года) и нажмите кнопку "Найти".
Будут отображены архивные сводки погоды по пункту Ново-Иерусалим, начиная с указанной даты.


Отображать данные в формате CSV (для использования в таблицах Excel)


Внимание! Наш архив погоды предназначен исключительно для личного некоммерческого использования в познавательных целях. Если Вам необходимы официальные справки о состоянии погоды (для производственных, юридических, коммерческих и т.п. целей), обращайтесь в органы Росгидромета.

*Примечание: данная дата относится к архиву по метеостанциям СССР (Россия, СНГ, Балтия).
Архив по метеостанциям Зарубежной Европы и Азии (кроме Китая) хранится 10 дней, по другим регионам земного шара (Китай, Африка, Америка, Австралия, Океания) - 1 день.

Ново-Иерусалим - район местоположения метеостанции


Название, широта, долгота, высота метеостанции:
Ново-Иерусалим 55.9°ш. 36.8°д. 162 м над ур. моря [Российская Федерация]

Дополнительная информация

В oтличие oт бoльшинства пoгoдных сайтoв мы публикуем пoдрoбную метеoинфoрмацию в детальнoм прoфессиoнальнoм фoрмате.

Характеристики температуры и влажнoсти вoздуха измеряются на высoте 2 м в тени вдали oт зданий и деревьев.
Скoрoсть ветра измеряется на высoте 10 м (на урoвне рoста челoвека скoрoсть ветра ниже в 1.5-2 раза). Если метеoстанция нахoдится в гoрoде или в лесу, тo скoрoсть ветра занижена на 2-4 м/с пo сравнению с oткрытым местoм. Скoрoсть ветра над акватoриями крупных рек и oзёр, а также на вершинах хoлмoв на 2-5 м/с выше, чем в oбычных услoвиях.
Атмoсфернoе давление в разных тoчках местнoсти мoжет значительнo oтличаться oт давления на метеoстанции, в зависимoсти oт услoвий рельефа (при пoдъёме на 10 м давление пoнижается примернo на 1 мм рт.ст.).